Rotterdam, Netherlands

6:08 PM CEST on September 28, 2016 (GMT +0200)
Rotterdam

Weather History for EHRD - December, 2012

Change the Weather History Date:

Friday, December 14, 2012

  Actual Average Record
Temperature  
Mean Temperature 40 °F -  
Max Temperature 50 °F 42 °F 55 °F (1998)
Min Temperature 31 °F 33 °F 21 °F (2010)
Degree Days  
Heating Degree Days 24    
Moisture  
Dew Point 39 °F    
Average Humidity 89    
Maximum Humidity 100    
Minimum Humidity 77    
Precipitation  
Precipitation 0.39 in - - ()
Sea Level Pressure  
Sea Level Pressure 29.34 in    
Wind  
Wind Speed 11 mph ()    
Max Wind Speed 22 mph    
Max Gust Speed 32 mph    
Visibility 4.9 miles    
Events Rain    
Averages and records for this station are not official NWS values.
T = Trace of Precipitation, MM = Missing Value Source: Averaged Metar Reports

Daily Weather History Graph

Daily Weather History Graph

Search for Another Location

Airport or City:

Trip Planner

Search our weather history database for the weather conditions in past years. The results will help you decide how hot, cold, wet, or windy it might be!

Date:

Astronomy

Dec. 14, 2012 Rise Set
Actual Time 8:43 AM CET 4:30 PM CET
Civil Twilight 8:02 AM CET 5:11 PM CET
Nautical Twilight 7:18 AM CET 5:55 PM CET
Astronomical Twilight 6:37 AM CET 6:36 PM CET
Moon 9:28 AM CET (12/14) 6:11 PM CET (12/14)
Length of Visible Light 9h 09m
Length of Day
7h 47m
New Moon, 2% of the Moon is Illuminated
Dec 14
New Moon
Dec 20
First Quarter
Dec 28
Full
Jan 5
Last Quarter
Jan 11
New

Hourly Weather History & Observations

Time (CET) Temp. Windchill Dew Point Humidity Pressure Visibility Wind Dir Wind Speed Gust Speed Precip Events Conditions
12:25 AM 35.6 °F 30.7 °F 32.0 °F 87% 29.65 in 3.7 mi SSE 5.8 mph - N/A   Light Drizzle
1:00 AM 35 °F - 33 °F 89% 29.65 in 3 mi SE 6.7 mph - - Rain Light Drizzle
1:25 AM 35.6 °F 29.9 °F 33.8 °F 93% 29.62 in - SE 6.9 mph - N/A Rain Light Rain
1:55 AM 35.6 °F 28.6 °F 33.8 °F 93% 29.62 in - SE 9.2 mph - N/A Rain Light Rain
2:25 AM 35.6 °F 29.2 °F 33.8 °F 93% 29.62 in 1.8 mi SSE 8.1 mph - N/A   Overcast
2:55 AM 35.6 °F 29.2 °F 35.6 °F 100% 29.62 in - SSE 8.1 mph - N/A   Overcast
3:25 AM 37.4 °F 30.3 °F 35.6 °F 93% 29.59 in 1.7 mi SSE 10.4 mph - N/A   Overcast
3:55 AM 37.4 °F 30.8 °F 35.6 °F 93% 29.59 in - SSE 9.2 mph - N/A   Overcast
4:00 AM 37 °F - 36 °F 93% 29.61 in 2 mi SSE 8.9 mph - -   Mist
4:25 AM 37.4 °F 30.8 °F 35.6 °F 93% 29.59 in 1.7 mi SSE 9.2 mph - N/A   Overcast
4:55 AM 37.4 °F 31.4 °F 35.6 °F 93% 29.59 in 1.6 mi SSE 8.1 mph - N/A   Overcast
5:25 AM 37.4 °F 32.1 °F 35.6 °F 93% 29.59 in 1.5 mi SE 6.9 mph - N/A   Overcast
5:55 AM 37.4 °F 30.3 °F 37.4 °F 100% 29.56 in 2.5 mi SSE 10.4 mph - N/A   Overcast
6:25 AM 37.4 °F 31.4 °F 35.6 °F 93% 29.56 in 3.1 mi SE 8.1 mph - N/A   Overcast
6:55 AM 39.2 °F 33.0 °F 37.4 °F 93% 29.56 in 3.7 mi SE 9.2 mph - N/A   Mostly Cloudy
7:00 AM 39 °F - 37 °F 88% 29.56 in 4 mi SE 8.9 mph - -   Mist
7:25 AM 39.2 °F 33.0 °F 37.4 °F 93% 29.53 in 4.3 mi SE 9.2 mph - N/A   Overcast
7:55 AM 39.2 °F 32.0 °F 37.4 °F 93% 29.50 in 5.0 mi ESE 11.5 mph - N/A   Mostly Cloudy
8:25 AM 39.2 °F 31.6 °F 37.4 °F 93% 29.50 in 5.0 mi ESE 12.7 mph - N/A   Mostly Cloudy
8:55 AM 39.2 °F 32.5 °F 37.4 °F 93% 29.47 in 4.3 mi ESE 10.4 mph - N/A   Partly Cloudy
9:25 AM 39.2 °F 32.5 °F 37.4 °F 93% 29.50 in 5.0 mi ESE 10.4 mph - N/A   Partly Cloudy
9:55 AM 39.2 °F 31.2 °F 37.4 °F 93% 29.47 in 6.2 mi SE 13.8 mph - N/A   Scattered Clouds
10:00 AM 40 °F - 37 °F 85% 29.48 in 7 mi SE 13.4 mph - -   Overcast
10:25 AM 41.0 °F 33.5 °F 37.4 °F 87% 29.44 in 6.2 mi SE 13.8 mph - N/A   Partly Cloudy
10:55 AM 41.0 °F 33.1 °F 37.4 °F 87% 29.44 in 6.2 mi SE 15.0 mph - N/A   Overcast
11:25 AM 42.8 °F 35.4 °F 37.4 °F 81% 29.42 in 6.2 mi SE 15.0 mph - N/A   Overcast
11:55 AM 42.8 °F 36.2 °F 37.4 °F 81% 29.42 in 6.2 mi SE 12.7 mph - N/A   Overcast
12:25 PM 42.8 °F 35.8 °F 37.4 °F 81% 29.39 in 6.2 mi ESE 13.8 mph - N/A   Overcast
12:55 PM 42.8 °F 35.1 °F 37.4 °F 81% 29.36 in 6.2 mi ESE 16.1 mph - N/A   Scattered Clouds
1:00 PM 42 °F - 37 °F 77% 29.34 in 12 mi ESE 15.7 mph - -   Partly Cloudy
1:25 PM 42.8 °F 34.8 °F 37.4 °F 81% 29.30 in 6.2 mi ESE 17.3 mph - N/A   Partly Cloudy
1:55 PM 42.8 °F 34.8 °F 37.4 °F 81% 29.27 in 6.2 mi SE 17.3 mph - N/A   Partly Cloudy
2:25 PM 42.8 °F 34.5 °F 37.4 °F 81% 29.24 in 6.2 mi SE 18.4 mph - N/A   Scattered Clouds
2:55 PM 42.8 °F 34.8 °F 39.2 °F 87% 29.21 in 5.0 mi SE 17.3 mph 28.8 mph N/A Rain Light Rain Showers
3:25 PM 42.8 °F 34.5 °F 39.2 °F 87% 29.18 in 3.1 mi SE 18.4 mph - N/A Rain Light Rain
3:55 PM 42.8 °F 34.5 °F 41.0 °F 93% 29.18 in 3.1 mi SE 18.4 mph - N/A Rain Rain Showers
4:00 PM 43 °F - 41 °F 89% 29.16 in 3 mi SE 17.9 mph - - Rain Rain Showers
4:25 PM 42.8 °F 34.5 °F 41.0 °F 93% 29.12 in 3.1 mi SE 18.4 mph 29.9 mph N/A Rain Light Rain
4:55 PM 44.6 °F 36.1 °F 42.8 °F 93% 29.12 in - SE 21.9 mph - N/A Rain Rain Showers
5:25 PM 44.6 °F 36.4 °F 42.8 °F 93% 29.09 in 3.1 mi SSE 20.7 mph 32.2 mph N/A Rain Light Rain Showers
5:55 PM 46.4 °F 38.5 °F 44.6 °F 93% 29.06 in 5.6 mi SSE 21.9 mph - N/A Rain Light Rain Showers
6:25 PM 46.4 °F 38.7 °F 44.6 °F 93% 29.06 in 6.2 mi SSE 20.7 mph - N/A Rain Light Rain
6:55 PM 46.4 °F 39.0 °F 44.6 °F 93% 29.06 in 4.3 mi South 19.6 mph - N/A Rain Light Rain Showers
7:00 PM 47 °F - 46 °F 93% 29.06 in 5 mi South 17.9 mph - - Rain Rain
7:25 PM 48.2 °F - 46.4 °F 93% 29.06 in 6.2 mi South 19.6 mph - N/A Rain Light Rain
7:55 PM 48.2 °F - 46.4 °F 93% 29.03 in 6.2 mi South 17.3 mph - N/A   Overcast
8:25 PM 50.0 °F - 46.4 °F 87% 29.06 in 6.2 mi South 20.7 mph - N/A   Mostly Cloudy
8:55 PM 50.0 °F - 46.4 °F 87% 29.06 in 6.2 mi South 18.4 mph - N/A   Partly Cloudy
9:25 PM 50.0 °F - 46.4 °F 87% 29.06 in 6.2 mi South 18.4 mph - N/A   Unknown
9:55 PM 48.2 °F - 44.6 °F 87% 29.09 in 6.2 mi South 17.3 mph - N/A   Scattered Clouds
10:00 PM 49 °F - 45 °F 82% 29.11 in 28 mi South 17.9 mph - -   Partly Cloudy
10:25 PM 50.0 °F - 44.6 °F 82% 29.09 in 6.2 mi South 17.3 mph - N/A   Unknown
10:55 PM 48.2 °F - 44.6 °F 87% 29.09 in 6.2 mi South 16.1 mph - N/A   Partly Cloudy
11:25 PM 48.2 °F - 44.6 °F 87% 29.12 in 6.2 mi South 17.3 mph - N/A   Mostly Cloudy
11:55 PM 48.2 °F - 42.8 °F 82% 29.12 in 6.2 mi South 16.1 mph - N/A   Scattered Clouds